Regional Weather Roundup
Issued by NWS Boston, MA

Current Version | Previous Version | Text Only | Print | Product List | Glossary Off
Versions: 1 2 3 4 5 6 7 8 9 10 11 12 13 14 15 16 17 18 19 20 21 22 23 24 25 26 27 28

000
ASUS41 KBOX 222110
RWRBOX

REGIONAL WEATHER ROUNDUP
NATIONAL WEATHER SERVICE TAUNTON MA
500 PM EDT THU JUN 22 2017

NOTE:  "FAIR" INDICATES FEW OR NO CLOUDS BELOW 12,000 FEET WITH NO
SIGNIFICANT WEATHER AND/OR OBSTRUCTIONS TO VISIBILITY.

MAZALL-222200-
EASTERN MASSACHUSETTS

CITY           SKY/WX    TMP DP  RH WIND       PRES   REMARKS
BOSTON         PTSUNNY   84  52  33 NW10      29.88S
BEVERLY        MOSUNNY   76  57  51 SE9       29.88S
LAWRENCE       MOSUNNY   82  54  37 W7        29.90F
BEDFORD        MOSUNNY   81  50  33 SW8       29.88S
BLUE HILL        N/A     81  50  33 W10G20    29.90S
NORWOOD        SUNNY     84  52  33 W3        29.88S
MARSHFIELD     SUNNY     81  59  47 NE5       29.88S
PLYMOUTH       SUNNY     80  55  42 SW15      29.90S
TAUNTON        SUNNY     82  56  40 S10       29.89F
NEW BEDFORD    SUNNY     77  56  48 SW16G24   29.90F
$$

MAZALL-222200-
CAPE COD AND THE ISLANDS

CITY           SKY/WX    TMP DP  RH WIND       PRES   REMARKS
FALMOUTH       SUNNY     75  55  50 SW21      29.93S
HYANNIS        SUNNY     77  56  48 SW18      29.92R
CHATHAM        SUNNY     72  59  63 SW10G17   29.94S
NANTUCKET      SUNNY     67  58  72 SW12      29.94F
MARTHAS VNYRD  SUNNY     73  55  53 SW13      29.94S
$$

MAZALL-222200-
CENTRAL AND WESTERN MASSACHUSETTS

CITY           SKY/WX    TMP DP  RH WIND       PRES   REMARKS
WORCESTER      SUNNY     79  48  33 W13       29.93F
FITCHBURG      MOSUNNY   84  54  35 W10G16    29.91
ORANGE         SUNNY     80  51  36 W8        29.91F
SPRINGFIELD    MOSUNNY   82  51  33 W9        29.89F
WESTFIELD      SUNNY     82  53  36 W8        29.90F
NORTH ADAMS    CLOUDY    79  57  46 S6        29.91F
PITTSFIELD     MOSUNNY   76  53  44 W8        29.92F
$$

RIZALL-222200-
RHODE ISLAND

CITY           SKY/WX    TMP DP  RH WIND       PRES   REMARKS
PROVIDENCE     MOSUNNY   83  52  34 W13G23    29.90S
NEWPORT        SUNNY     73  58  59 SW10      29.92S
BLOCK ISLAND   SUNNY     72  55  55 SW16      29.95F
WESTERLY       SUNNY     77  57  50 SW10G20   29.94F
$$

CTZALL-222200-
CONNECTICUT

CITY           SKY/WX    TMP DP  RH WIND       PRES   REMARKS
BRADLEY INTL   PTSUNNY   84  52  33 W13       29.90F
HARTFORD       MOSUNNY   84  55  36 W8        29.89F
BRIDGEPORT     MOSUNNY   82  60  47 S14       29.92F
DANBURY        SUNNY     83  60  45 SW10      29.92F
GROTON         MOSUNNY   74  60  61 SW14      29.92S
NEW HAVEN      SUNNY     79  61  53 S12       29.92F
CHESTER        FAIR      79  59  50 SW8G14    29.94F
MERIDEN        MOSUNNY   82  61  48 S8        29.90F
WILLIMANTIC    SUNNY     85  52  32 W10G17    29.90F
OXFORD         MOSUNNY   81  55  41 W9        29.96F
$$

MEZ002-015-021-024-NHZ003-005-008-011-012-014-VTZ005-008-222200-
NORTHERN NEW ENGLAND

CITY           SKY/WX    TMP DP  RH WIND       PRES   REMARKS
PORTLAND ME    MOSUNNY   80  50  34 W7        29.86S
BANGOR ME      PTSUNNY   76  47  35 NW8       29.83R
CONCORD NH     CLOUDY    81  51  35 NW10      29.89S
MANCHESTER NH  CLOUDY    81  47  30 W10       29.87F
NASHUA NH      MOSUNNY   81  51  35 W9        29.89F
PORTSMOUTH NH  PTSUNNY   75  57  53 SE7       29.87R
JAFFREY NH     CLOUDY    79  52  38 W8        29.93F
KEENE NH       PTSUNNY   78  51  38 VRB7      29.91S
BURLINGTON VT  CLOUDY    78  52  40 S5        29.85F
MT. WASHINGTON PTSUNNY   48  41  76 W33         N/A
$$

NYZ052-076-222200-
EASTERN NEW YORK

CITY           SKY/WX    TMP DP  RH WIND       PRES   REMARKS
ALBANY         PTSUNNY   80  57  45 S7        29.89F
NEW YORK CITY  PTSUNNY   82  59  45 S15G22    29.92F
$$

ANZALL-222200-
MARINE OBSERVATIONS

STATION/POSITION TIME  TEMP    WIND        PRES    VSBY  WAVE
                       AIR SEA DIR/SP/G                  HT/PER
                 (UTC) (F)     (DEG/KT/KT) (MB)    (MI)  (FT/S)
BOSTON BUOY      2050   65 59  120/ 10/ 12 1012.1F         1/ 6
BUZZARDS BAY     2000   66     210/ 18/ 19 1013.7F
NANTUCKET SOUND  2050      66              1013.3F         1/ 2
MASS BAY-STELLWA 2004   66 63  160/ 10/ 12 1011.7F         1/ 7
ISLE OF SHOALS   2000   66     160/ 20/ 22 1011.4F
S OF BLOCK IS    2055      64                N/A           3/ 6
$$

......................KEY.........................
  SKY/WX - SKY CONDITION/PRESENT WEATHER
  TMP    - TEMPERATURE IN FAHRENHEIT
  DWPT   - DEWPOINT IN FAHRENHEIT
  RH     - RELATIVE HUMIDITY IN PERCENT
  WIND   - DIRECTION AND SPEED IN MPH
  PRES   - MEAN SEA LEVEL PRESSURE IN INCHES OF HG
  WCI    - WIND CHILL INDEX
  VSB    - VISIBILITY IN MILES
  HX     - HEAT INDEX
  TC     - TEMPERATURE IN CELSIUS
  VRB    - VARIABLE WIND DIRECTION
  N/A    - NOT AVAILABLE




USA.gov is the U.S. government's official web portal to all federal, state and local government web resources and services.